Regional Weather Roundup
Issued by NWS

Home | Current Version | Previous Version | Graphics & Text | Print | Product List | Glossary Off
Versions: 1 2 3 4 5 6 7 8 9 10 11 12 13 14 15 16 17 18 19 20 21 22 23 24 25 26 27 28 29 30 31 32 33 34 35 36 37 38 39 40 41 42 43 44 45 46 47 48 49 50

000
ASUS43 KMKX 282300
RWRWI

WISCONSIN REGIONAL WEATHER ROUNDUP
NATIONAL WEATHER SERVICE MILWAUKEE/SULLIVAN WI
600 PM CDT THU JUL 28 2016

NOTE: "FAIR" INDICATES FEW OR NO CLOUDS BELOW 12,000 FEET WITH NO
SIGNIFICANT WEATHER AND/OR OBSTRUCTIONS TO VISIBILITY.

WIZ001-002-006>008-014>016-023>028-290000-
NORTHWEST WISCONSIN

CITY           SKY/WX    TMP DP  RH WIND       PRES   REMARKS
SUPERIOR ARPT  CLOUDY    66  60  80 NE8       30.08S
ASHLAND        MOSUNNY   67  55  65 NE13      30.08S
HAYWARD        PTSUNNY   69  54  58 NE13G21   30.06R
SIREN          NOT AVBL
CUMBERLAND     CLOUDY    70  55  60 N10G17    30.03S
RICE LAKE      CLOUDY    73  59  62 N15       30.03S
CHETEK         CLOUDY    73  60  62 MISG      30.02S
LADYSMITH      PTSUNNY   74  62  65 N12G18    30.04R
EAU CLAIRE     NOT AVBL
MENOMONIE      CLOUDY    71  67  88 E7        30.01R
NEW RICHMOND   MOSUNNY   75  56  51 NE12G18   30.03R
OSCEOLA        MOSUNNY   74  56  51 NE12      30.05R
$$

WIZ003>005-009-010-017-018-290000-
NORTH CENTRAL WISCONSIN

CITY           SKY/WX    TMP DP  RH WIND       PRES   REMARKS
MANITOWISH WTR PTSUNNY   69  56  62 NE10      30.06R
ARBOR VITAE    CLOUDY    71  59  66 NE10      30.06R
WOODRUFF       CLOUDY    71  59  66 NE10      30.06R
RHINELANDER    PTSUNNY   73  54  51 E9        30.04S
EAGLE RIVER    MOSUNNY   70  53  54 NE14      30.05R
LAND O LAKES   PTSUNNY   68  52  56 N8        30.08R
PHILLIPS       MOSUNNY   71  58  63 NE8G16    30.03R
TOMAHAWK       CLOUDY    70  58  65 NE5       30.04R
MEDFORD        CLOUDY    65  64  96 E5        30.02R
MERRILL        CLOUDY    68  63  82 CALM      30.03R
$$

WIZ029-030-035-036-043>047-290000-
CENTRAL WISCONSIN

CITY           SKY/WX    TMP DP  RH WIND       PRES   REMARKS
WAUSAU         CLOUDY    66  61  84 CALM      30.00S
MOSINEE        CLOUDY    66  61  82 NE7       30.02R
MARSHFIELD     CLOUDY    64  59  83 E6        30.00S
STEVENS POINT  CLOUDY    65  57  77 NE7       30.00S
WAUPACA        PTSUNNY   73  64  73 N9        29.98F
WAUTOMA        CLOUDY    69  64  84 NE8       29.98R
WISC RAPIDS    CLOUDY    68  57  68 E9        30.00R
CAMP DOUGLAS   NOT AVBL
$$

WIZ011>013-019>022-031-037>040-048>050-290000-
NORTHEAST WISCONSIN

CITY           SKY/WX    TMP DP  RH WIND       PRES   REMARKS
ANTIGO         CLOUDY    68  62  83 CALM      30.03R
SHAWANO        CLOUDY    70  62  75 E9        30.01R
OCONTO         CLOUDY    65  65 100 CALM      30.00R
STURGEON BAY   CLOUDY    69  60  73 NE7       30.00S
GREEN BAY      CLOUDY    68  65  90 NE9       29.98S
MANITOWOC      NOT AVBL
APPLETON       CLOUDY    68  57  68 NE14G20   29.97S
CLINTONVILLE   CLOUDY    68  57  68 NE5       30.00R
OSHKOSH        CLOUDY    70  63  78 NE17      29.96S
$$

WIZ032>034-041-042-053>061-290000-
SOUTHWEST WISCONSIN

CITY           SKY/WX    TMP DP  RH WIND       PRES   REMARKS
LA CROSSE      LGT RAIN  67  64  90 NE5       29.98R FOG
SPARTA         CLOUDY    65  63  93 N7        29.98R
VIROQUA        CLOUDY    66  66 100 N6        29.97R
BOSCOBEL       CLOUDY    74  68  81 VRB6      29.92R
PRAIRIE DU CHI CLOUDY    71  65  80 NW12      29.93R
PLATTEVILLE    MOSUNNY   76  72  85 N9        29.91R
$$

WIZ056-057-062-063-064-067-068-290000-
SOUTH CENTRAL WISCONSIN

CITY           SKY/WX    TMP DP  RH WIND       PRES   REMARKS
REEDSBURG      CLOUDY    71  66  83 NE7       29.94S
BARABOO/DELLS  CLOUDY    71  64  77 NE13      29.94S
LONE ROCK      NOT AVBL
MINERAL POINT  LGT RAIN  73  70  88 N7        29.92R
MADISON        CLOUDY    74  66  76 NE13      29.92R
MIDDLETON      CLOUDY    73  69  89 NE10G16   29.93R
WATERTOWN      CLOUDY    71  68  88 E8        29.93R
MONROE         PTSUNNY   75  68  78 NE9       29.91R
JANESVILLE     PTSUNNY   77  68  73 E9        29.90S
$$

WIZ051-052-058>065-066-070>072-290000-
SOUTHEAST WISCONSIN

CITY           SKY/WX    TMP DP  RH WIND       PRES   REMARKS
MILWAUKEE      CLOUDY    67  63  87 N13G23    29.94R
WAUKESHA       MOSUNNY   68  63  83 NE12G20   29.95S
MILWAUKEE/TIMM CLOUDY    68  61  77 N12G17    29.96R
RACINE         CLOUDY    67  65  93 N14       29.95R
BURLINGTON     CLOUDY    68  65  90 E13G18    29.91F
KENOSHA        CLOUDY    69  66  90 N12G17    29.93R
FOND DU LAC    CLOUDY    73  62  68 NE14      29.96R
SHEBOYGAN      CLOUDY    68  59  73 NE15      29.96S
WEST BEND      CLOUDY    68  61  77 NE12G18   29.96S
JUNEAU         CLOUDY    71  63  77 NE10      29.96R
$$

LSZ147-162-290000-
LAKE SUPERIOR

STATION/POSITION TIME  TEMP    WIND        PRES    WAVE
                       AIR SEA DIR/SP/G            HT/PER
                 (UTC) (F)     (DEG/KT/KT) (MB)    (FT/S)
W MID LAKE BUOY  2150   62 61   90/ 10/ 12 1018.3F   2/ 5
DEVILS ISLAND    2200   64      80/ 12/ 13 1018.7F
PORT WING        2140   60     360/ 11/ 12 1018.3F
SAXON HARBOR     2200   68      50/ 16/ 20 1017.9F
$$

LMZ867-665-643>646-290000-
LAKE MICHIGAN

STATION/POSITION TIME  TEMP    WIND        PRES    WAVE
                       AIR SEA DIR/SP/G            HT/PER
                 (UTC) (F)     (DEG/KT/KT) (MB)    (FT/S)
CHAMBERS ISLAND  2200   72      30/  6/  8 1015.2F
N MID LAKE BUOY  2150   70 71   30/  6/  8 1014.6F   0
NORTHPORT PIER   2200   71      70/  5/  7 1015.2S
SISTER BAY       2221   75     120/  3/  7   N/A
ALGOMA LAKESHORE 2213           50/  6/  9   N/A
KEWAUNEE LAKESHO 2200           20/  5/  9 1014.9F
SHEBOYGAN LAKESH 2200   60     360/ 12/ 13 1014.7F
PORT WASHINGTON  2200   68      30/ 13/ 17 1014.9R
ATWATER BUOY     2200   63 63   10/ 16/ 17 1015.2R
MILWAUKEE LAKESH 2210   65     360/ 16/ 19   N/A
S MID LAKE BUOY  2150   75 77   10/ 12/ 14 1012.3R   2/ 6
KENOSHA   LAKESH 2200   67      20/ 18/ 20 1012.2F
$$

TC  - TEMPERATURE IN CELSIUS
VSB - VISIBILITY IN STATUTE MILES
WCI - WIND CHILL INDEX
HX  - HEAT INDEX





USA.gov is the U.S. government's official web portal to all federal, state and local government web resources and services.